User: anonymous   Login
Location: Epalinges
(46.5518°N, 6.6683°E)
Time: 23:19:09
(UTC+00:00)
Language:

GPS 2-04 Rocket1 - Orbit

View from above orbital plane
View from above orbital plane
View from above satellite
View from above satellite

Ground track
Ground track

The orbit data is extracted from the following two-line orbital elements,

1 20303U 89085B   21269.44357610  .00005043  00000-0  15242-3 0  9997
2 20303  35.6436 318.1516 0088380   6.1681 354.0118 15.29933638739944
Epoch (UTC): 26 September 2021 10:38:44
Eccentricity: 0.0088380
inclination: 35.6436°
perigee height: 415 km
apogee height: 536 km
right ascension of ascending node: 318.1516°
argument of perigee: 6.1681°
revolutions per day: 15.29933638
mean anomaly at epoch: 354.0118°
orbit number at epoch: 73994

The dashed part of the orbit path shows where the satellite is in the earth's shadow,  

DLR